PWSweather.com
Personal Weather Stations
Station Observations
KIDJEROME
Sse Jerome Butte , Jerome, ID 83338

Sse Jerome Butte Jerome, ID 83338

Lat: 42.6981891, Lon: -114.4041362

Elevation: 3960

Station Type: Davis Vantage Pro 2

Latest ConditionsUpdated 7:45:00 AM MST Friday, Jan 18, 2019
Currently Today's Max Today's Min Today's Average
Temperature 33.2°F0.7°C 34.1°F1.2°C 32.9°F0.5°C 33.5°F0.8°C
Dew Point 30.0°F-1.1°C 32.6°F0.3°C 30.0°F-1.1°C 31.2°F-0.4°C
Winds 10.0 mph WSW16.1 kmh WSW 13.0 mph -20.9 kmh - - 9.8 mph 15.8 kmh
Wind Gusts 15.0 mph24.1 kmh 19.0 mph30.6 kmh - -
Humidity 88% 95% 88% 91%
Pressure 30.21 in1023.0 mb 30.21 in1023.0 mb 29.97 in1014.9 mb -
Hour Temp Dew Point Humidity Winds Wind Gusts Pressure Precip Precip Rate Daily Precip Total
07:45 AM 33.2°F0.7°C 30.0°F-1.1°C 88% 10.0 mph WSW16.1 kmh WSW 15.0 mph24.1 kmh 30.21 in1023.0 mb 0.00 in0.0 mm 0.00 in0.0 mm 0.03 in0.8 mm
07:30 AM 32.9°F0.5°C 30.0°F-1.1°C 89% 10.0 mph WSW16.1 kmh WSW 13.0 mph20.9 kmh 30.20 in1022.7 mb 0.00 in0.0 mm 0.00 in0.0 mm 0.03 in0.8 mm
07:15 AM 33.1°F0.6°C 30.5°F-0.8°C 90% 9.0 mph WSW14.5 kmh WSW 13.0 mph20.9 kmh 30.19 in1022.4 mb 0.00 in0.0 mm 0.00 in0.0 mm 0.03 in0.8 mm
07:00 AM 33.0°F0.6°C 30.4°F-0.9°C 90% 10.0 mph WSW16.1 kmh WSW 13.0 mph20.9 kmh 30.18 in1022.0 mb 0.00 in0.0 mm 0.00 in0.0 mm 0.03 in0.8 mm
06:45 AM 33.3°F0.7°C 30.7°F-0.7°C 90% 11.0 mph WSW17.7 kmh WSW 16.0 mph25.7 kmh 30.18 in1022.0 mb 0.00 in0.0 mm 0.00 in0.0 mm 0.03 in0.8 mm
06:30 AM 33.3°F0.7°C 30.7°F-0.7°C 90% 12.0 mph WSW19.3 kmh WSW 17.0 mph27.4 kmh 30.17 in1021.7 mb 0.00 in0.0 mm 0.00 in0.0 mm 0.03 in0.8 mm
06:15 AM 33.4°F0.8°C 30.5°F-0.8°C 89% 11.0 mph WSW17.7 kmh WSW 15.0 mph24.1 kmh 30.16 in1021.3 mb 0.00 in0.0 mm 0.00 in0.0 mm 0.03 in0.8 mm
06:00 AM 33.7°F0.9°C 30.5°F-0.8°C 88% 13.0 mph WSW20.9 kmh WSW 18.0 mph29.0 kmh 30.15 in1021.0 mb 0.00 in0.0 mm 0.00 in0.0 mm 0.03 in0.8 mm
05:45 AM 33.6°F0.9°C 30.4°F-0.9°C 88% 13.0 mph WSW20.9 kmh WSW 19.0 mph30.6 kmh 30.14 in1020.7 mb 0.00 in0.0 mm 0.00 in0.0 mm 0.03 in0.8 mm
05:30 AM 33.6°F0.9°C 30.7°F-0.7°C 89% 11.0 mph WSW17.7 kmh WSW 17.0 mph27.4 kmh 30.14 in1020.7 mb 0.00 in0.0 mm 0.00 in0.0 mm 0.03 in0.8 mm
05:15 AM 33.8°F1.0°C 30.9°F-0.6°C 89% 9.0 mph WSW14.5 kmh WSW 15.0 mph24.1 kmh 30.14 in1020.7 mb 0.00 in0.0 mm 0.00 in0.0 mm 0.03 in0.8 mm
05:00 AM 33.9°F1.1°C 31.0°F-0.6°C 89% 11.0 mph WSW17.7 kmh WSW 16.0 mph25.7 kmh 30.10 in1019.3 mb 0.00 in0.0 mm 0.00 in0.0 mm 0.03 in0.8 mm
04:45 AM 33.9°F1.1°C 31.0°F-0.6°C 89% 11.0 mph WSW17.7 kmh WSW 14.0 mph22.5 kmh 30.09 in1019.0 mb 0.00 in0.0 mm 0.00 in0.0 mm 0.03 in0.8 mm
04:30 AM 33.9°F1.1°C 31.0°F-0.6°C 89% 10.0 mph WSW16.1 kmh WSW 16.0 mph25.7 kmh 30.08 in1018.6 mb 0.00 in0.0 mm 0.00 in0.0 mm 0.03 in0.8 mm
04:15 AM 33.8°F1.0°C 31.2°F-0.4°C 90% 10.0 mph WSW16.1 kmh WSW 15.0 mph24.1 kmh 30.08 in1018.6 mb 0.00 in0.0 mm 0.00 in0.0 mm 0.03 in0.8 mm
04:00 AM 33.8°F1.0°C 31.5°F-0.3°C 91% 12.0 mph WSW19.3 kmh WSW 16.0 mph25.7 kmh 30.07 in1018.3 mb 0.00 in0.0 mm 0.00 in0.0 mm 0.03 in0.8 mm
03:45 AM 33.6°F0.9°C 31.5°F-0.3°C 92% 11.0 mph WSW17.7 kmh WSW 16.0 mph25.7 kmh 30.07 in1018.3 mb 0.00 in0.0 mm 0.00 in0.0 mm 0.03 in0.8 mm
03:30 AM 33.4°F0.8°C 31.3°F-0.4°C 92% 12.0 mph WSW19.3 kmh WSW 16.0 mph25.7 kmh 30.07 in1018.3 mb 0.00 in0.0 mm 0.00 in0.0 mm 0.03 in0.8 mm
03:15 AM 33.4°F0.8°C 31.3°F-0.4°C 92% 11.0 mph WSW17.7 kmh WSW 17.0 mph27.4 kmh 30.07 in1018.3 mb 0.00 in0.0 mm 0.00 in0.0 mm 0.03 in0.8 mm
03:00 AM 33.4°F0.8°C 31.3°F-0.4°C 92% 11.0 mph WSW17.7 kmh WSW 16.0 mph25.7 kmh 30.05 in1017.6 mb 0.00 in0.0 mm 0.00 in0.0 mm 0.03 in0.8 mm
02:45 AM 33.3°F0.7°C 31.5°F-0.3°C 93% 10.0 mph WSW16.1 kmh WSW 15.0 mph24.1 kmh 30.05 in1017.6 mb 0.00 in0.0 mm 0.00 in0.0 mm 0.03 in0.8 mm
02:30 AM 33.3°F0.7°C 31.5°F-0.3°C 93% 10.0 mph WSW16.1 kmh WSW 14.0 mph22.5 kmh 30.04 in1017.3 mb 0.00 in0.0 mm 0.00 in0.0 mm 0.03 in0.8 mm
02:15 AM 33.2°F0.7°C 31.4°F-0.3°C 93% 10.0 mph WSW16.1 kmh WSW 15.0 mph24.1 kmh 30.03 in1016.9 mb 0.00 in0.0 mm 0.00 in0.0 mm 0.03 in0.8 mm
02:00 AM 33.4°F0.8°C 31.3°F-0.4°C 92% 11.0 mph WSW17.7 kmh WSW 15.0 mph24.1 kmh 30.03 in1016.9 mb 0.00 in0.0 mm 0.00 in0.0 mm 0.03 in0.8 mm
01:45 AM 33.6°F0.9°C 31.3°F-0.4°C 91% 13.0 mph WSW20.9 kmh WSW 17.0 mph27.4 kmh 30.01 in1016.3 mb 0.00 in0.0 mm 0.00 in0.0 mm 0.03 in0.8 mm
01:30 AM 33.6°F0.9°C 31.0°F-0.6°C 90% 12.0 mph WSW19.3 kmh WSW 17.0 mph27.4 kmh 30.00 in1015.9 mb 0.00 in0.0 mm 0.00 in0.0 mm 0.03 in0.8 mm
01:15 AM 34.0°F1.1°C 31.6°F-0.2°C 91% 8.0 mph WSW12.9 kmh WSW 19.0 mph30.6 kmh 30.00 in1015.9 mb 0.00 in0.0 mm 0.00 in0.0 mm 0.03 in0.8 mm
01:00 AM 33.8°F1.0°C 32.5°F0.3°C 95% 6.0 mph WSW9.7 kmh WSW 10.0 mph16.1 kmh 29.99 in1015.6 mb 0.00 in0.0 mm 0.00 in0.0 mm 0.03 in0.8 mm
12:45 AM 33.3°F0.7°C 32.0°F0.0°C 95% 3.0 mph WSW4.8 kmh WSW 6.0 mph9.7 kmh 29.99 in1015.6 mb 0.00 in0.0 mm 0.00 in0.0 mm 0.03 in0.8 mm
12:30 AM 33.3°F0.7°C 32.0°F0.0°C 95% 4.0 mph WSW6.4 kmh WSW 4.0 mph6.4 kmh 29.99 in1015.6 mb 0.01 in0.3 mm 0.00 in0.0 mm 0.03 in0.8 mm
12:15 AM 33.5°F0.8°C 32.0°F0.0°C 94% 5.0 mph WSW8.0 kmh WSW 7.0 mph11.3 kmh 29.99 in1015.6 mb 0.01 in0.3 mm 0.00 in0.0 mm 0.03 in0.8 mm
12:00 AM 34.1°F1.2°C 32.6°F0.3°C 94% 5.0 mph WSW8.0 kmh WSW 7.0 mph11.3 kmh 29.97 in1014.9 mb 0.03 in0.8 mm 0.00 in0.0 mm 0.03 in0.8 mm